Regional Weather Roundup
Issued by NWS Newport/Morehead, NC

Current Version | Previous Version | Graphics & Text | Print | Product List | Glossary Off
Versions: 1 2 3 4 5 6 7 8 9 10 11 12 13 14 15 16 17 18 19 20 21 22 23 24 25 26 27 28 29 30 31 32 33 34 35 36 37 38 39 40 41 42 43 44 45 46 47 48 49 50

000
ASUS42 KMHX 251122
RWRMHX
WEATHER ROUNDUP FOR EASTERN NORTH CAROLINA
NATIONAL WEATHER SERVICE NEWPORT/MOREHEAD CITY NC
600 AM EST THU DEC 25 2014

NOTE: "FAIR" INDICATES FEW OR NO CLOUDS BELOW 12,000 FEET
WITH NO SIGNIFICANT WEATHER AND/OR OBSTRUCTIONS TO VISIBILITY

NCZ015>017-031-032-045>047-102-103-251200-
NORTH COAST

CITY           SKY/WX    TMP DP  RH WIND       PRES   REMARKS
EDENTON        RAIN      64  62  94 SW12      29.75R
ELIZABETH CITY CLOUDY    68  62  81 S8        29.73R
KITTY HAWK     CLOUDY    64  63  99 SW8       29.74R
MANTEO         CLOUDY    59  59 100 SW6       29.76R

$$

NCZ045>047-081-094-103-104-251200-
CENTRAL COAST

CITY           SKY/WX    TMP DP  RH WIND       PRES   REMARKS
FRISCO         CLOUDY    60  60 100 SW13      29.78R FOG
SWANQUARTER      N/A     55 N/A N/A S7        29.74S

$$

NCZ095-097-098-100-101-251200-
SOUTHERN COAST

CITY           SKY/WX    TMP DP  RH WIND       PRES   REMARKS
BEAUFORT       CLOUDY    61  60  97 SW12      29.81R
CEDAR ISLAND     N/A     63 N/A N/A SW9G17    29.82S
JACKSONVILLE   CLOUDY    64  48  56 W15G23    29.81R
PINEY ISLAND   CLOUDY    64  61  90 SW13      29.79R
WILMINGTON     CLOUDY    60  50  69 W15       29.85R


$$

NCZ011>013-027>030-043-044-078>080-089-090>093-098-251200-
COASTAL PLAIN

CITY           SKY/WX    TMP DP  RH WIND       PRES   REMARKS
AHOSKIE        CLOUDY    62  55  79 CALM      29.74R
CLINTON        CLOUDY    56  49  76 W14G20    29.87R
ELIZABETHTOWN  CLOUDY    56  46  70 W10       29.89R
GOLDSBORO      CLOUDY    59  54  85 W21       29.80R
GREENVILLE     CLOUDY    63  52  67 W14G20    29.80R
HAVELOCK       CLOUDY    64  61  90 SW12      29.81R
KENANSVILLE    CLOUDY    58  46  64 W13       29.87R
KINSTON        NOT AVBL
NEW BERN       CLOUDY    67  55  65 W10       29.82R
RICHLANDS      CLOUDY    61  46  59 W13G20    29.84R
ROCKY MOUNT    CLOUDY    60  50  69 SW12G23   29.78R
WASHINGTON     CLOUDY    64  51  63 W17       29.79R
WHITEVILLE     CLOUDY    57  46  66 W8        29.90R

$$

AMZ130-135-150-152-154-156-158-170-250-252-270-ANZ085-086-088-633-658-670-251200-
MARINE OBSERVATIONS

STATION/POSITION TIME  TEMP    WIND        PRES    WAVE   SWELL
                       AIR SEA DIR/SP/G            HT/PER HT/PER
                 (UTC) (F)     (DEG/KT/KT) (MB)    (FT/S) (FT/S)
CHESAPEAKE LIGHT 1100   63     240/ 16/ 17 1006.4
64 E VA BEACH    1100   56 53  220/  6/  8 1006.2    6/ 8   7/ 8
DUCK             1100   62 50  230/ 12/ 14 1006.5
2 E DUCK         1100      50                N/A     3/ 6
10 NE DUCK       1100      50                N/A     4/ 8
OREGON INLET     1100   56 54  210/ 13/ 14 1007.9
13E OREGON INLT  1100      51                N/A     6/ 8   2/11
HATTERAS CG      1100   61 56  230/ 12/ 15 1009.2
DIAMOND BUOY     1100   70                 1008.0    7/ 7
17 S OCRACOKE    NOT AVBL
CAPE LOOKOUT     1100   61     230/ 11/ 13 1009.5
BEAUFORT LAB     1100   60 55  230/  6/ 10 1008.4
30 SE NEW RIVER  1100   63 60  240/ 19/ 23 1010.2    7/ 8   5/ 8
5 SE WRIGHTSVLE  NOT AVBL
225 S CAPE HAT   0955   75 72  210/ 21/ 25 1013.4    8/ 6
41 SE CHARLESTON 1100   62 73  290/ 25/ 29 1013.0    7/ 7

$$


USA.gov is the U.S. government's official web portal to all federal, state and local government web resources and services.